Wind_Speed
6 8 9 10 11 12 13 14 14 15 17 20 19 17 16 15 15 15 14 14 13 14 15 16 16 17 16 16 16 15 14 13 13 13 12 12 12 11 10 8 7 6 6 4 4 3 3 3 4 4 4 4 4 4 3 3 4 6 8 9 10 10 10 10 10 9 8 7 7 7 6 5 5 4 4 4 4 4 4 4 5 6 7 7 8
6 9 11 12 12 12 12 13 15 15 18 20 19 18 16 16 16 15 15 14 15 15 16 17 17 16 15 14 14 13 13 12 12 12 12 12 12 11 9 8 8 7 6 4 3 2 2 3 4 4 4 4 4 4 4 4 5 7 8 9 9 9 10 10 10 10 9 8 7 6 6 6 6 6 5 5 4 4 4 4 4 6 7 7 8
7 8 11 14 14 13 13 14 16 17 20 21 19 18 17 16 16 15 15 15 16 16 16 16 16 14 13 12 12 12 12 12 12 12 13 13 12 11 9 8 8 7 5 4 3 1 1 2 3 3 3 3 3 3 3 4 6 7 8 8 9 9 9 9 10 11 11 11 9 8 7 7 7 7 6 5 5 4 4 4 5 6 7 7 7
8 8 10 13 14 15 14 15 17 18 20 21 19 18 17 17 17 16 16 16 16 16 16 15 14 13 12 12 13 13 13 13 14 15 15 14 13 11 10 9 8 6 5 3 2 1 1 2 3 2 1 2 2 3 3 5 6 7 8 8 8 8 8 8 9 10 10 11 10 9 8 7 7 7 7 6 5 5 4 5 6 7 7 7 7
9 8 10 12 15 16 16 17 17 19 21 21 20 20 19 18 18 18 18 18 17 16 16 14 13 13 13 14 14 14 15 16 17 17 16 15 13 11 10 8 7 5 3 2 1 1 2 2 2 1 1 1 2 3 4 5 6 6 6 7 7 7 7 7 8 9 9 10 10 10 9 7 6 6 6 6 6 6 6 6 7 8 8 8 8
11 9 10 12 14 16 16 17 18 20 21 21 21 21 20 20 20 20 19 18 18 16 15 15 15 15 16 16 17 17 18 18 17 15 14 12 11 11 9 7 5 4 2 1 1 2 3 3 2 1 1 1 2 3 4 5 5 5 6 6 6 6 7 7 8 8 9 10 10 10 8 7 6 6 6 6 6 6 7 7 8 8 9 9 9
13 11 10 11 14 15 16 17 19 20 21 22 22 21 21 21 21 20 20 19 18 17 16 16 17 17 18 18 19 19 18 16 13 12 12 11 11 10 8 7 5 3 1 1 2 3 4 4 3 2 2 2 2 3 4 4 5 5 5 6 6 6 7 8 9 9 10 11 11 10 9 7 6 6 6 6 6 7 7 8 9 10 10 10 11
16 14 12 11 13 16 17 18 20 21 22 22 22 22 22 22 21 21 20 19 18 18 18 18 18 19 19 19 19 19 17 14 12 12 13 13 12 10 8 7 5 2 0 1 2 3 4 4 4 3 3 2 3 4 3 4 5 6 7 7 7 7 7 9 10 10 10 11 11 10 9 8 7 6 6 6 6 7 8 9 9 10 10 10 11
18 16 14 12 13 16 19 20 21 21 21 22 22 22 22 21 21 20 20 19 19 19 19 20 20 20 19 19 19 18 15 14 14 14 15 14 12 10 8 7 5 2 1 2 3 4 4 5 5 4 4 3 3 4 3 3 5 7 9 9 8 8 9 10 10 10 11 11 10 9 8 8 7 7 6 6 6 5 6 7 8 8 8 8 9
19 18 17 14 13 15 18 19 21 21 21 22 22 21 21 20 20 19 19 19 20 21 21 21 20 20 19 19 19 17 15 15 16 16 16 14 12 10 9 7 5 3 2 2 4 5 5 5 5 5 5 4 4 4 4 4 6 8 9 9 9 9 10 10 10 10 10 10 9 8 8 7 7 7 7 7 6 5 5 5 6 6 6 7 8
19 19 19 18 16 16 17 18 18 19 20 21 21 20 20 20 19 19 19 20 20 21 21 21 21 20 20 19 19 17 17 17 17 17 17 15 13 11 10 8 7 5 4 4 4 5 6 6 6 6 5 5 5 5 5 6 8 9 9 8 9 10 9 8 8 8 8 8 8 7 7 7 7 8 8 8 8 8 6 5 5 6 6 7 9
19 19 20 20 19 17 17 17 18 18 19 20 20 20 19 19 19 19 19 19 20 21 21 21 21 21 20 20 19 19 18 18 19 18 18 16 14 12 11 9 9 8 7 5 5 5 7 7 7 6 6 6 7 7 7 7 9 10 9 8 9 9 8 7 7 7 7 6 6 7 7 7 7 8 9 9 9 9 8 7 6 6 7 8 9
19 19 19 20 19 18 17 18 18 19 20 20 20 20 20 20 20 20 20 20 21 21 21 21 21 21 21 21 21 20 20 20 19 19 18 17 15 14 12 12 11 10 8 7 5 5 6 8 7 7 7 7 8 8 8 9 10 10 8 8 9 8 7 7 7 7 6 6 6 7 7 7 7 8 9 10 10 11 10 9 8 8 8 8 8
21 21 21 20 20 20 20 19 19 20 21 22 22 22 22 22 22 22 22 22 22 22 21 21 21 21 22 21 21 21 21 21 20 19 19 18 16 15 15 14 13 11 10 8 6 6 7 8 8 8 8 8 8 9 9 10 10 10 8 8 8 8 7 7 7 6 6 6 6 6 6 7 7 7 8 9 10 11 10 9 9 8 8 8 8
23 22 21 21 21 22 22 22 21 21 22 23 23 24 24 24 24 23 23 23 23 22 22 22 22 22 22 21 21 21 22 22 21 20 19 19 18 17 16 16 15 13 11 9 8 8 8 8 8 8 8 8 9 9 10 10 10 9 8 8 7 7 8 7 7 6 5 5 5 5 5 6 6 7 7 8 9 9 9 9 9 8 8 8 7
23 22 21 20 21 22 23 23 23 23 23 23 23 23 24 24 24 24 24 24 24 24 23 23 23 23 22 21 21 21 21 22 22 22 21 21 19 18 18 18 17 14 12 10 9 10 9 9 9 9 9 9 10 10 10 11 11 9 8 8 7 7 8 8 7 6 5 5 6 6 6 6 6 6 6 7 8 8 8 8 8 8 8 8 7
22 21 21 21 21 21 22 23 24 24 24 23 22 23 23 24 24 25 25 24 24 24 24 24 23 23 22 21 21 21 21 21 22 22 22 21 20 19 19 19 18 16 14 12 12 12 11 10 11 11 10 10 11 11 11 11 11 10 8 8 7 8 8 7 7 5 4 6 7 7 7 6 6 6 5 6 7 7 7 8 8 8 8 8 8
22 21 21 21 20 19 19 21 23 24 24 23 23 23 23 23 24 24 24 24 24 24 24 24 23 23 22 22 21 21 21 22 22 22 22 21 20 20 20 20 20 19 16 14 14 13 12 12 12 12 12 12 12 12 12 12 12 10 9 8 8 8 9 8 7 6 5 7 9 9 9 8 7 7 7 7 8 8 8 8 9 9 10 10 10
24 22 21 20 19 18 17 18 20 22 24 25 25 24 23 23 23 23 23 24 24 24 23 23 23 23 22 21 21 21 21 21 22 22 22 21 21 22 21 21 21 20 18 16 15 15 14 14 14 14 13 13 13 13 13 13 12 11 10 9 8 9 9 9 8 7 7 8 9 10 10 10 9 9 9 9 9 9 9 10 11 12 12 12 12
25 24 22 20 19 17 17 17 18 20 22 25 26 26 24 24 23 23 23 23 23 22 22 22 22 21 21 20 20 20 20 20 21 21 21 21 22 22 22 22 21 20 19 18 16 16 16 15 15 16 15 15 15 14 14 14 13 13 12 10 9 9 10 10 9 9 9 10 9 9 11 11 11 10 10 10 10 10 10 11 12 13 13 13 13
28 26 24 22 20 17 16 17 18 21 23 25 26 26 26 26 24 23 23 23 22 21 21 21 21 21 21 20 20 20 20 20 20 21 20 21 22 22 22 22 21 20 20 19 18 18 17 17 17 17 17 16 16 16 15 15 14 14 14 12 10 10 10 10 10 9 9 9 8 9 11 13 13 13 12 12 12 12 13 13 13 13 13 14 14
30 28 26 24 22 19 17 18 20 22 23 25 27 26 27 27 26 26 25 24 22 21 21 21 21 21 21 21 21 20 20 20 20 20 20 21 21 21 22 22 21 20 19 19 19 19 19 18 18 19 18 18 17 17 17 16 15 15 15 14 12 10 10 9 9 9 8 7 7 9 12 14 14 14 13 13 13 15 16 16 16 14 13 13 14
32 31 29 27 24 22 21 22 24 24 24 26 27 27 27 27 27 28 26 24 23 22 22 22 21 21 21 21 21 21 20 20 20 20 21 22 22 22 23 23 22 21 20 19 19 19 19 19 19 20 20 19 18 19 18 17 17 17 16 15 13 11 10 9 9 9 9 8 7 9 10 12 12 13 13 14 16 18 19 20 19 17 14 14 14
33 32 32 30 28 27 27 26 26 27 26 26 27 27 27 27 28 28 26 25 24 23 22 21 20 21 21 21 21 21 21 21 21 21 22 23 24 24 24 24 24 23 21 20 21 21 21 21 21 21 21 20 20 20 20 19 19 18 18 17 15 13 11 10 10 10 11 10 8 8 10 11 12 13 15 17 18 19 20 21 20 18 15 14 15
35 35 34 34 33 31 29 27 27 29 27 26 27 28 28 28 28 27 26 26 25 24 22 21 20 21 21 21 21 21 21 20 21 22 23 24 25 25 25 25 25 24 23 22 22 22 22 22 22 22 22 21 21 22 21 21 20 19 19 19 17 15 13 12 11 12 13 13 10 9 10 12 13 14 15 15 15 16 16 16 16 15 14 14 16
37 37 36 36 35 33 31 29 28 29 28 26 26 27 28 29 29 28 27 27 26 25 23 22 21 21 21 20 20 20 19 20 21 22 23 25 25 25 25 25 25 25 25 24 23 23 22 22 23 23 22 22 22 23 23 22 21 20 20 20 19 18 16 14 13 13 14 14 12 11 11 12 13 14 12 12 14 16 15 14 13 12 13 15 16
38 38 38 37 36 35 33 31 29 28 28 26 26 26 27 28 28 29 28 28 27 26 24 23 23 22 21 20 19 19 19 20 21 22 23 24 24 24 24 24 24 24 24 23 23 23 22 22 23 22 21 22 23 23 23 23 22 20 20 21 21 20 19 17 15 15 15 15 14 13 12 12 13 13 11 11 14 16 15 13 12 12 14 16 17
41 41 40 39 39 37 35 34 31 28 27 27 26 26 25 26 27 28 29 29 28 27 25 24 24 23 21 20 20 20 20 21 21 21 21 21 21 21 21 21 22 21 21 21 21 21 21 21 21 21 21 22 23 23 23 23 22 21 20 21 22 22 22 20 18 16 16 16 16 15 13 12 13 13 12 11 13 15 14 14 14 14 16 17 18
44 44 42 41 41 39 37 35 32 29 28 29 27 24 23 23 24 27 28 28 27 26 25 25 25 23 21 21 22 21 21 21 20 19 18 18 17 17 18 18 18 18 18 18 18 18 18 18 19 19 20 21 21 22 22 22 22 21 21 22 23 24 24 23 20 18 17 17 17 16 15 14 13 13 13 12 12 14 14 14 14 16 17 18 19
46 46 44 43 42 41 39 35 33 30 30 29 27 24 23 22 23 25 26 26 26 25 24 25 25 23 22 23 23 22 21 20 19 17 16 15 14 14 13 13 13 14 13 13 14 14 14 15 16 17 19 20 20 20 21 22 22 22 22 23 24 25 25 25 23 21 19 18 19 18 17 16 15 14 13 13 13 14 14 14 14 16 17 18 20
48 47 45 43 43 42 40 36 33 30 29 29 30 27 25 24 23 23 24 25 26 24 24 25 24 23 23 23 22 21 21 19 18 16 15 14 13 11 10 10 10 9 7 7 8 9 10 12 14 16 18 19 18 19 20 22 23 23 24 25 25 25 26 26 25 23 21 20 20 20 19 18 17 15 14 14 16 16 15 15 15 17 18 20 21
48 47 45 43 43 43 42 38 34 32 30 30 31 29 26 25 24 22 22 24 25 25 24 24 24 24 23 23 22 21 20 19 18 17 16 15 14 13 11 10 9 7 6 6 6 6 7 9 11 13 15 17 18 18 20 22 23 24 25 26 27 27 27 27 26 24 24 22 21 21 21 20 19 18 17 16 18 18 18 17 17 18 20 22 23
44 44 43 42 42 44 44 41 37 35 32 31 32 29 25 24 25 23 23 23 24 24 24 24 24 25 24 22 21 21 20 20 19 18 18 18 16 14 12 10 9 8 8 7 7 7 7 7 8 10 12 13 15 16 18 21 24 26 27 28 28 28 28 28 27 26 26 25 24 23 22 21 21 21 21 20 20 21 21 21 21 21 22 23 24
37 40 41 40 41 43 44 43 42 38 34 34 34 29 24 24 26 25 24 23 23 24 24 24 25 25 23 22 21 21 20 20 20 20 20 18 16 14 13 12 11 11 10 10 10 10 10 10 10 11 11 12 13 13 15 18 21 24 26 28 28 28 28 28 27 27 27 26 26 26 24 22 22 22 24 24 23 24 24 24 24 24 24 25 26
31 33 35 37 40 42 43 45 45 41 37 36 33 28 24 24 25 24 24 24 24 25 25 26 26 25 24 24 22 21 21 21 21 21 20 18 17 15 14 14 14 14 14 14 15 15 15 14 14 14 14 14 14 15 16 17 19 21 23 25 26 27 28 28 28 28 28 28 28 28 27 24 23 24 25 27 27 27 27 27 27 27 27 27 28
29 28 30 32 37 40 42 45 46 43 39 35 31 28 26 25 24 25 26 26 26 26 27 27 28 27 26 24 23 22 23 22 22 22 21 20 19 18 18 18 19 19 19 20 20 20 20 20 20 20 19 19 19 19 20 21 23 24 25 26 26 26 26 26 26 27 27 28 30 30 28 26 26 25 26 29 31 30 30 30 30 30 31 30 30
29 28 28 30 33 36 39 43 44 43 40 35 32 30 28 26 25 26 26 28 27 27 28 28 27 26 24 24 24 24 24 24 23 23 23 23 23 22 23 23 23 24 24 24 24 25 26 26 26 26 26 26 25 25 25 25 27 29 30 30 30 30 29 27 27 26 26 27 29 30 29 27 28 28 28 31 34 33 32 33 33 33 34 34 33
29 28 28 29 30 31 34 38 42 43 41 36 33 31 28 26 27 27 27 28 27 26 25 24 23 23 23 25 26 27 27 26 26 26 26 26 27 26 26 27 28 29 28 28 29 30 31 31 30 31 31 31 31 31 30 30 31 33 35 35 34 34 33 32 31 30 28 28 30 31 30 29 29 29 29 33 37 35 33 35 36 36 37 37 38
31 29 28 29 30 30 30 33 37 40 41 36 33 31 29 28 28 29 28 28 25 22 21 20 21 24 26 28 29 29 29 29 28 28 29 29 29 29 30 31 32 33 33 34 34 33 33 34 34 35 35 36 36 36 35 35 36 37 38 40 40 39 38 37 36 35 33 33 34 35 34 32 32 32 32 36 40 38 36 37 39 40 39 40 42
32 30 29 29 30 29 29 30 33 37 40 37 34 31 30 30 30 30 29 28 26 23 22 23 24 25 27 29 30 30 31 30 29 30 30 31 31 32 34 36 36 36 37 37 37 36 35 36 37 37 38 38 39 40 39 38 38 40 41 43 45 45 43 41 40 39 38 39 40 40 38 36 35 35 35 39 42 40 38 40 42 42 42 42 44
32 31 31 31 30 29 29 29 31 36 39 38 34 32 31 31 31 30 30 30 29 27 27 27 26 25 26 27 29 31 32 33 34 34 34 33 34 35 37 38 38 38 39 39 38 38 37 38 38 39 41 40 41 43 42 39 37 39 42 44 46 48 47 46 46 44 44 44 44 44 43 42 41 39 38 42 44 42 40 41 43 44 44 45 46
32 31 31 31 31 30 30 30 31 35 37 37 35 33 33 33 33 32 31 30 30 29 28 28 28 28 27 27 28 31 32 33 34 33 32 32 34 37 40 40 38 38 38 39 39 39 40 40 41 42 43 43 43 44 43 41 37 37 41 44 47 49 50 51 51 50 49 48 48 47 47 46 46 44 42 44 46 44 42 42 44 45 46 47 49
33 32 31 31 31 30 30 30 32 34 36 37 36 36 36 36 35 33 31 30 30 30 30 30 30 31 31 30 31 31 30 29 29 29 28 29 31 35 38 39 37 36 37 38 38 39 41 41 41 41 43 43 44 44 44 43 41 40 42 46 48 51 54 55 55 54 53 52 52 52 51 50 51 50 48 48 49 46 44 44 45 46 47 49 51
33 32 32 31 30 30 31 31 32 34 36 37 38 38 38 37 36 35 34 33 33 33 34 34 34 34 35 34 34 34 32 31 31 31 31 32 33 34 35 36 36 36 37 37 39 41 43 43 43 44 44 44 46 47 47 46 43 42 44 47 48 51 54 56 57 57 57 56 54 53 52 51 52 53 53 53 52 48 46 46 47 47 49 51 53
34 34 33 31 30 30 30 31 33 34 36 38 39 41 41 41 40 39 38 37 37 37 37 37 38 38 39 39 38 36 35 35 35 35 35 36 36 37 37 37 38 38 38 39 42 44 46 47 47 47 48 48 50 51 51 49 47 46 48 49 51 51 53 55 57 59 58 56 53 52 51 50 50 52 55 55 53 50 50 49 48 48 51 54 54
36 35 34 33 31 31 30 31 33 34 36 37 39 41 43 43 42 41 41 41 41 40 40 40 41 41 42 42 41 40 39 39 39 39 39 39 40 41 41 41 41 40 41 43 45 47 49 50 50 50 51 52 53 54 53 51 50 51 52 52 53 53 53 55 58 60 61 60 57 56 54 52 52 54 56 55 52 52 53 53 51 50 53 55 55
36 36 35 34 33 32 31 32 33 35 36 37 38 40 41 41 42 42 43 43 44 43 43 43 43 43 44 44 43 42 41 41 41 41 42 43 44 44 44 43 43 44 45 47 49 50 52 53 53 53 54 55 55 55 55 53 52 53 53 53 54 55 56 57 60 62 63 64 63 60 58 56 58 60 59 57 54 54 55 55 54 54 56 57 57
38 37 36 36 35 34 33 33 34 36 37 38 38 39 40 40 40 41 42 43 43 43 43 43 43 44 44 43 43 42 42 42 43 44 45 45 45 45 45 45 45 46 48 49 50 51 52 53 54 55 56 56 56 56 56 56 55 56 57 58 58 60 61 63 64 65 65 66 65 64 63 63 64 65 63 60 57 57 57 57 55 56 59 59 56
39 38 37 36 36 35 35 34 34 36 38 39 39 40 40 40 41 40 40 40 40 41 41 41 41 41 41 42 42 43 44 44 45 45 46 46 45 46 46 46 46 48 50 51 52 52 53 54 56 57 58 59 59 58 59 59 59 59 61 63 64 65 67 68 68 70 72 72 70 67 67 68 69 69 68 64 60 59 60 60 58 59 61 61 57
40 39 38 37 37 37 37 36 35 37 39 40 41 42 42 42 42 42 41 41 41 41 41 41 41 41 42 43 44 46 46 47 47 47 46 45 45 46 47 48 49 51 53 54 55 56 57 58 59 60 61 63 64 63 63 64 65 63 64 66 69 71 72 73 75 78 80 79 75 71 70 71 71 72 70 66 62 62 64 63 62 61 61 59 56
41 40 39 38 37 37 37 37 37 37 38 41 42 44 44 44 44 43 43 43 43 44 44 44 44 45 46 47 49 49 49 49 48 46 45 44 45 47 48 50 52 53 55 56 57 57 58 60 62 63 63 64 66 66 65 66 67 67 67 67 69 71 74 77 79 82 83 83 80 76 74 74 75 76 73 67 63 65 68 69 66 62 61 59 58
Wind_Direction
175 175 177 185 191 194 198 198 195 194 189 182 178 177 179 180 179 180 181 178 179 181 181 185 188 189 190 191 191 193 192 189 187 186 185 184 183 180 177 177 175 168 155 137 119 94 62 37 26 26 41 63 74 76 65 38 24 21 15 10 9 11 13 14 14 12 3 357 360 357 352 346 334 327 326 332 342 349 348 338 326 322 326 335 344
184 184 177 177 182 186 192 194 191 188 186 181 178 178 177 177 178 177 176 177 181 184 185 188 189 189 189 187 188 189 188 187 186 184 182 181 179 178 177 176 172 164 153 140 128 105 56 27 22 28 46 66 71 66 54 32 19 17 13 12 12 14 20 24 24 23 17 12 13 5 357 353 349 347 345 346 345 340 335 322 311 311 320 332 339
185 193 185 179 176 178 185 189 187 185 183 181 179 179 178 178 178 175 175 180 184 186 189 190 190 188 184 182 184 184 183 183 183 182 181 179 177 177 175 170 167 162 156 151 145 130 36 8 13 26 48 68 67 56 39 18 13 14 14 18 18 17 24 31 30 28 24 22 21 15 7 358 352 351 351 351 348 336 324 310 302 306 318 328 333
180 190 191 185 177 175 181 185 185 184 182 181 181 181 182 181 178 176 179 182 185 188 190 190 187 182 178 180 181 181 181 181 183 184 181 180 178 175 170 165 163 161 159 160 159 174 288 335 358 15 44 67 51 31 19 9 9 14 18 23 19 15 19 25 27 24 20 20 21 18 13 2 351 346 345 345 343 336 324 310 305 310 317 323 328
176 183 189 190 184 179 181 184 184 184 183 183 184 184 185 184 181 180 181 182 185 188 188 185 181 178 177 180 181 181 183 186 188 187 184 181 177 171 166 163 163 162 162 171 181 228 270 299 332 349 358 36 21 7 4 4 11 21 25 25 19 11 7 9 15 15 11 11 13 13 8 359 346 337 335 334 333 330 323 312 308 311 315 318 322
173 179 186 193 192 187 184 184 185 185 185 186 188 189 188 186 183 182 182 182 185 185 182 180 180 180 180 182 184 185 189 192 192 189 184 178 171 166 166 166 168 168 174 215 248 265 272 284 303 305 284 322 352 353 356 1 13 27 30 26 16 5 355 354 2 5 2 1 3 4 1 354 341 328 321 320 320 318 313 309 307 309 312 314 317
172 176 184 193 195 195 192 189 189 188 189 190 190 190 190 187 185 183 182 182 182 180 178 179 182 183 185 187 188 191 195 195 190 185 177 171 170 172 174 174 176 180 203 273 277 275 276 282 289 282 265 281 330 341 350 1 10 14 16 12 3 355 349 348 352 355 356 357 358 359 359 355 346 333 322 313 310 305 302 302 303 306 310 313 315
173 174 178 190 196 198 197 196 195 193 192 192 192 192 191 189 187 184 182 180 178 176 177 181 184 186 189 190 191 195 197 192 183 179 175 176 181 182 182 183 183 190 255 332 319 297 286 285 288 279 261 269 316 331 341 354 355 351 351 352 350 350 350 346 346 350 355 359 360 1 1 0 356 349 339 325 313 303 296 294 295 298 303 307 310
175 174 174 184 197 201 201 200 199 196 194 194 193 193 192 191 189 185 181 179 177 177 180 184 186 188 191 192 193 195 193 184 180 180 182 187 192 190 192 195 196 208 274 342 345 332 312 298 293 285 265 260 297 315 322 332 333 335 337 339 343 346 347 346 347 352 358 1 2 5 5 5 5 1 355 346 334 319 305 296 293 295 299 304 306
180 177 174 179 193 201 202 202 200 197 195 196 194 192 191 191 189 186 182 179 178 180 183 185 187 189 191 192 194 193 187 183 185 187 191 196 199 198 202 209 216 233 268 314 337 342 331 314 301 291 272 258 276 295 303 311 317 324 329 332 337 341 344 348 350 354 359 0 1 3 5 5 6 7 6 7 5 0 346 321 309 307 309 310 311
189 183 178 179 189 197 199 201 202 199 196 196 194 191 190 190 189 187 185 183 183 184 186 186 187 188 191 192 193 190 186 187 192 195 198 202 204 206 210 216 224 238 258 284 312 332 333 324 310 297 279 259 262 280 293 300 307 316 323 327 331 336 343 349 351 352 356 359 356 355 359 358 357 1 6 10 13 13 9 354 334 324 320 319 322
199 194 187 184 187 192 196 199 201 200 198 199 197 193 190 189 190 190 189 188 188 189 190 189 188 189 190 193 193 191 190 193 198 202 204 207 210 213 216 219 224 234 247 265 288 312 327 328 317 304 285 264 260 271 285 293 302 310 316 321 327 333 340 345 343 342 349 354 349 347 349 349 348 351 354 358 1 1 359 352 341 328 321 321 325
202 200 196 190 187 188 196 199 199 200 200 201 200 197 194 192 194 194 193 193 194 195 195 193 192 192 192 194 195 193 194 199 205 209 210 213 215 217 220 222 226 234 244 254 267 289 314 325 321 308 290 271 261 266 277 287 297 305 308 316 324 328 333 334 330 332 340 346 345 343 343 340 342 344 346 347 349 350 349 347 342 333 326 328 329
200 203 201 194 189 189 195 199 199 201 202 202 201 200 199 198 199 199 199 198 198 199 199 198 197 197 197 198 198 197 198 203 210 213 216 218 220 221 222 227 231 236 243 249 256 272 296 313 318 310 294 276 263 266 275 282 292 299 301 311 319 320 322 322 322 328 338 345 346 343 339 335 337 341 342 343 344 347 350 352 350 344 340 341 340
201 205 204 199 195 193 195 197 198 202 204 204 204 203 203 204 203 203 203 202 202 202 202 202 203 203 202 203 202 202 202 206 213 217 221 223 224 225 226 230 235 238 244 247 251 265 283 301 308 305 293 276 264 266 274 280 288 291 292 304 314 315 315 317 322 332 343 356 2 360 349 341 340 340 342 346 348 352 357 359 359 358 356 355 350
203 206 206 204 203 201 199 197 198 203 206 207 208 208 209 209 208 207 206 205 204 204 205 205 206 206 206 206 206 206 207 210 215 219 223 226 228 228 229 233 237 241 244 244 245 259 276 291 299 298 288 273 263 264 272 278 283 285 284 295 307 309 310 315 323 334 353 12 18 16 7 358 353 349 352 358 359 359 359 1 2 4 4 2 1
204 205 206 207 209 210 207 201 201 205 207 209 211 213 214 214 213 212 211 209 209 209 210 209 210 210 210 210 210 211 212 214 218 221 225 228 230 231 231 234 239 242 242 241 242 254 269 281 291 293 285 271 262 261 268 276 279 278 276 285 298 303 305 311 320 329 351 7 7 8 8 5 3 360 358 359 359 357 354 354 356 357 356 356 359
205 205 207 208 210 214 216 210 206 206 207 209 211 215 218 219 218 217 215 214 214 215 215 214 215 215 215 215 215 215 216 219 222 225 228 231 232 234 234 235 237 241 244 243 242 249 263 274 284 290 285 273 262 259 264 273 276 272 268 274 289 297 301 306 313 320 333 347 355 360 4 7 5 360 354 350 349 347 345 344 345 345 344 344 347
206 208 210 210 210 212 217 220 218 214 210 209 211 214 216 219 220 220 219 218 218 218 219 220 220 221 221 221 221 221 221 223 226 229 232 235 236 238 238 237 238 241 244 245 244 248 258 269 278 286 285 274 263 258 260 267 273 268 262 265 279 291 297 302 309 316 320 328 342 353 1 4 3 356 350 347 346 345 343 340 338 337 336 336 337
208 211 212 213 213 212 214 219 223 223 219 214 212 211 211 215 218 220 220 220 219 219 222 224 226 229 230 230 229 229 228 229 231 234 236 238 239 241 242 242 242 242 245 246 247 248 254 263 273 282 284 276 264 257 256 261 268 265 259 259 269 282 291 298 307 315 316 319 329 344 352 352 349 346 341 339 340 341 341 339 335 333 331 330 330
208 210 211 212 214 216 220 225 225 225 223 221 217 211 209 210 213 218 220 221 221 222 224 226 229 231 234 236 236 236 236 236 236 238 240 242 243 245 246 247 247 246 247 248 248 248 251 260 271 279 282 276 265 256 254 257 264 262 257 255 261 272 284 297 307 315 318 320 325 334 336 334 333 333 331 327 325 324 324 324 325 326 324 322 322
208 208 207 208 211 215 222 232 234 228 224 224 223 218 214 211 211 216 219 220 223 225 227 230 231 232 235 238 239 240 241 243 243 245 246 246 248 249 250 251 252 250 248 248 248 248 251 258 267 275 279 275 264 256 252 254 260 261 256 253 256 264 278 294 306 315 321 324 329 331 331 331 330 330 330 325 319 314 313 315 318 319 316 314 314
208 205 205 206 209 212 216 225 233 231 225 224 225 223 221 219 218 219 219 221 224 226 228 231 232 234 236 238 240 242 245 247 248 249 249 249 249 249 250 252 253 252 250 250 251 250 252 257 264 271 276 273 264 255 251 251 255 259 256 253 253 258 270 286 298 307 313 318 329 334 336 338 336 334 332 325 317 312 309 311 314 315 312 308 307
207 204 205 206 208 213 217 222 230 232 227 223 224 225 225 226 226 225 225 226 227 228 230 232 234 236 237 237 239 241 243 245 247 248 249 250 250 249 250 250 251 252 251 251 252 253 255 259 264 268 272 270 262 254 249 247 251 256 256 254 252 254 261 271 284 295 301 307 319 331 336 338 334 332 331 327 322 317 313 310 310 311 310 307 306
207 205 207 208 211 215 219 223 231 235 231 226 225 227 228 230 231 231 230 231 232 232 234 235 237 239 238 236 237 240 242 243 244 245 247 249 251 251 252 251 251 251 251 250 250 252 255 259 261 264 265 264 259 252 247 245 248 254 256 254 253 253 256 263 273 284 291 298 308 318 326 330 329 329 333 336 338 335 329 323 319 316 314 310 308
209 208 210 212 213 216 218 223 231 238 238 233 231 231 231 233 234 235 234 234 234 234 234 236 238 240 240 239 239 240 241 242 244 246 248 250 251 252 252 252 252 251 250 249 249 251 253 256 259 261 260 258 254 250 246 245 247 254 258 256 254 253 254 259 268 277 285 293 302 309 316 324 328 331 334 338 342 341 336 334 331 322 315 310 308
210 210 212 213 215 216 218 222 230 239 243 240 238 237 237 237 238 239 238 236 236 235 234 234 236 238 238 240 241 240 240 243 246 248 250 251 252 252 251 251 250 249 249 248 249 250 252 254 256 256 254 252 250 247 246 246 248 255 259 259 256 254 254 256 263 271 278 286 296 304 310 319 327 331 331 329 333 335 331 326 325 319 312 309 309
209 210 212 213 214 215 217 221 227 236 243 243 241 241 243 244 244 243 241 239 237 236 234 232 233 235 235 234 235 237 241 246 249 251 252 253 252 251 249 247 246 246 246 246 246 248 249 249 250 250 248 248 247 246 247 248 251 257 262 261 258 256 255 254 258 266 272 278 288 297 303 310 318 324 329 330 333 334 328 321 318 316 313 312 311
208 210 213 213 214 215 218 222 226 234 241 244 243 243 246 249 250 249 246 242 239 237 235 233 233 233 230 229 231 236 241 245 249 250 250 248 246 243 241 241 242 243 243 244 245 245 245 243 244 245 246 246 246 247 248 250 253 259 263 262 260 258 256 254 255 261 268 273 279 288 295 300 306 315 323 328 329 329 325 319 316 315 315 315 314
209 212 214 214 214 215 217 221 227 233 240 245 245 243 245 250 253 253 250 246 241 237 235 234 234 231 227 228 232 237 241 244 244 242 239 237 234 231 230 230 232 234 237 240 241 242 242 243 244 246 247 247 248 248 249 251 254 259 263 264 263 261 259 257 254 258 265 270 274 280 287 292 297 306 316 322 322 321 318 314 315 316 317 317 317
213 216 217 217 216 215 216 219 225 232 238 243 244 242 243 247 251 254 253 247 241 237 234 233 231 228 226 229 234 238 240 240 237 234 231 227 222 215 212 211 213 218 225 233 239 243 245 245 246 248 250 251 251 250 250 252 256 260 263 266 267 265 263 261 258 257 262 267 271 274 280 287 291 296 306 315 318 318 314 310 311 314 316 317 318
219 221 222 221 218 217 216 218 223 228 234 241 243 242 243 246 248 250 250 244 238 235 234 232 227 224 225 229 233 236 236 235 233 230 227 224 220 213 207 206 207 213 223 233 240 248 252 251 251 253 254 254 254 251 251 254 258 263 266 268 269 268 267 266 264 261 261 264 268 271 275 281 287 291 297 305 311 315 314 309 307 309 312 315 317
225 227 228 226 222 219 217 217 221 226 231 238 242 242 243 245 245 243 241 238 234 233 232 229 224 222 224 227 230 232 232 232 232 231 229 229 228 225 220 219 220 228 237 242 245 250 255 258 260 261 263 263 261 258 256 257 260 264 267 269 270 270 270 270 269 268 266 265 267 269 271 276 282 287 292 297 302 306 310 311 307 305 307 310 313
228 230 232 230 227 224 220 218 220 224 229 236 241 241 239 241 243 242 240 237 233 229 225 221 220 221 224 226 228 230 232 232 232 232 233 236 238 237 236 237 240 246 253 257 259 259 257 258 261 265 269 274 276 275 272 269 268 268 269 270 270 270 270 271 271 272 272 270 268 268 270 273 278 284 289 293 295 299 304 308 309 304 302 305 308
230 231 232 232 231 229 224 221 221 224 227 234 240 240 237 241 244 244 241 236 230 224 219 217 219 222 225 227 229 231 233 233 234 235 237 240 244 246 248 251 255 258 262 264 265 264 263 263 264 263 265 271 276 278 278 278 278 277 276 276 276 275 274 274 274 274 274 273 272 269 269 271 274 279 285 289 291 294 298 304 307 305 301 301 304
233 233 233 232 232 231 229 226 225 224 225 230 236 238 238 243 247 244 241 237 232 226 222 222 225 227 228 229 231 233 235 235 236 238 240 244 250 253 256 258 259 261 263 265 266 267 267 266 265 263 264 265 268 269 271 274 276 276 276 277 278 280 280 279 278 278 277 275 275 274 273 271 271 275 281 285 287 290 294 298 302 303 301 301 302
236 235 235 234 234 233 232 230 228 225 224 227 232 235 237 241 246 246 242 238 236 232 230 231 232 233 233 234 234 233 235 236 239 241 244 249 252 255 256 258 260 262 263 263 264 265 265 263 262 262 263 262 262 262 263 265 268 270 271 273 275 276 278 279 280 279 279 279 279 280 278 274 271 272 276 280 282 285 290 294 296 298 299 300 300
236 235 236 239 239 237 235 232 230 226 225 226 231 235 236 238 243 246 243 239 238 238 237 237 238 239 239 238 237 236 235 236 238 241 244 247 250 253 256 258 261 262 262 261 260 259 260 261 262 262 262 260 259 259 259 260 262 265 267 269 271 272 273 275 276 277 278 279 280 280 280 277 274 272 273 276 279 281 285 289 291 293 295 298 299
237 236 236 239 241 241 238 235 232 229 226 226 230 235 236 235 239 242 242 240 240 240 240 241 242 241 240 239 239 240 241 242 242 242 242 244 247 249 252 254 255 256 256 255 254 252 253 256 258 259 259 259 259 259 258 258 260 263 266 267 268 270 270 271 272 274 275 275 275 275 275 275 275 274 273 275 277 279 282 285 287 290 292 295 296
240 237 237 237 238 240 239 237 234 230 226 225 229 233 235 236 238 241 243 243 244 244 246 246 245 245 244 245 247 247 248 249 248 245 243 244 245 248 251 252 252 253 253 253 253 252 252 253 255 257 259 260 261 262 261 260 259 259 262 265 266 267 268 268 269 271 271 270 270 271 272 272 273 274 274 274 275 277 279 282 284 287 289 291 292
243 239 237 237 236 237 238 237 234 229 225 223 226 231 235 238 240 242 244 245 246 248 252 254 253 250 249 251 253 251 248 248 247 245 244 245 248 250 253 255 257 258 257 257 257 257 257 257 259 262 264 266 266 267 269 270 265 258 257 261 264 266 266 266 266 266 266 266 268 270 272 272 272 272 272 272 273 275 277 279 282 284 286 288 289
245 240 237 236 235 235 235 235 234 230 224 220 222 228 233 236 241 244 245 246 247 250 256 261 262 260 257 257 259 256 252 251 252 250 250 251 254 255 256 259 264 265 263 263 264 265 266 265 265 266 269 271 272 272 273 274 269 262 258 259 262 267 268 266 265 264 265 266 268 269 270 271 271 271 270 270 271 273 275 277 278 281 283 285 286
244 241 237 235 234 234 233 233 234 232 226 220 220 225 230 234 239 243 245 247 248 252 258 261 262 262 261 261 262 262 259 259 261 262 261 261 263 263 260 260 264 266 265 265 268 271 273 274 273 272 273 274 274 275 275 274 270 266 264 263 264 266 266 266 266 266 266 266 267 267 267 268 269 269 269 269 270 271 273 274 275 277 280 281 283
242 240 237 235 233 233 233 232 232 232 229 224 221 223 228 232 236 239 241 243 246 250 253 254 255 257 259 260 261 260 260 262 264 265 265 265 266 266 264 262 264 266 266 268 270 272 274 276 276 275 276 275 273 274 275 273 270 268 269 269 268 268 267 267 267 268 268 268 268 269 269 268 267 267 267 267 268 269 270 270 272 274 277 278 279
240 239 237 236 233 233 233 233 232 231 230 228 226 225 227 231 234 237 239 241 244 246 247 249 251 253 256 258 259 258 257 258 260 262 265 267 268 269 269 268 268 268 268 269 269 271 273 275 275 275 275 274 273 273 273 273 271 270 270 269 268 269 270 270 270 271 272 272 271 270 269 268 268 266 265 265 266 268 269 269 269 271 272 274 276
239 238 236 235 234 234 235 235 234 233 232 232 231 230 230 232 234 237 238 240 243 245 246 247 249 251 252 254 255 255 255 256 259 262 265 267 270 271 272 272 271 269 267 267 267 269 271 272 273 274 274 273 272 272 273 272 270 270 271 270 269 268 269 270 270 271 272 272 271 271 270 269 269 268 267 267 267 266 267 267 267 268 269 271 274
237 237 236 234 233 234 235 236 237 236 235 235 235 234 234 235 235 236 238 240 242 244 245 247 248 248 249 250 252 253 254 256 260 263 265 268 271 273 273 272 270 267 265 265 266 267 267 269 270 270 270 270 271 272 273 274 273 273 274 273 273 272 271 270 269 269 270 270 270 271 270 268 267 267 268 268 266 264 264 265 266 267 268 269 271
236 236 235 235 234 234 234 236 237 237 237 237 237 237 239 239 239 238 239 241 242 244 244 245 246 246 247 248 251 253 256 259 263 265 268 271 273 273 273 272 270 268 268 268 269 268 268 269 269 269 269 269 269 271 273 274 275 276 276 275 273 272 271 271 270 270 270 269 268 267 266 264 264 265 266 265 265 265 265 264 264 265 266 268 269
238 236 234 234 235 234 233 233 235 236 237 237 238 238 240 241 242 243 243 243 244 245 246 247 247 248 249 251 254 258 261 263 266 268 270 271 270 269 270 270 270 271 272 272 273 273 273 273 273 273 273 273 273 274 274 274 273 273 273 273 272 271 270 270 270 269 267 265 263 263 263 262 263 263 263 263 264 266 267 266 265 265 265 265 265
239 238 236 235 235 235 234 232 233 235 237 238 239 239 240 241 243 245 246 247 248 250 251 251 252 253 254 257 259 262 264 266 268 269 269 267 266 266 268 269 271 272 273 274 275 276 276 276 276 276 276 276 277 277 276 275 274 273 271 270 270 269 269 268 267 267 266 264 262 262 263 263 263 263 263 263 263 263 264 264 264 265 266 264 262
238 239 239 238 237 236 235 234 234 236 237 239 240 240 241 243 244 246 248 249 250 251 253 254 256 257 259 261 262 264 266 267 268 267 266 265 266 267 269 271 272 273 275 276 276 277 277 277 276 276 276 275 276 277 276 275 275 274 272 270 269 268 267 266 265 266 267 266 265 263 262 263 263 263 263 263 263 262 262 262 262 264 266 264 261
Height
5900 5900 5901 5902 5903 5905 5906 5908 5909 5910 5912 5914 5915 5916 5918 5920 5921 5923 5924 5926 5927 5928 5929 5930 5931 5932 5933 5934 5935 5936 5937 5938 5939 5940 5941 5942 5942 5943 5944 5944 5944 5944 5944 5945 5945 5945 5945 5944 5944 5943 5943 5942 5942 5942 5941 5941 5940 5940 5939 5939 5938 5937 5937 5936 5935 5934 5934 5933 5932 5931 5930 5930 5930 5930 5930 5929 5929 5929 5928 5928 5927 5926 5925 5924 5924
5900 5900 5900 5901 5902 5904 5905 5907 5908 5910 5911 5913 5914 5916 5917 5919 5921 5922 5924 5925 5926 5927 5928 5929 5930 5932 5933 5934 5935 5937 5938 5938 5939 5940 5941 5942 5943 5943 5944 5944 5944 5944 5944 5944 5945 5945 5945 5944 5944 5943 5943 5942 5942 5942 5941 5941 5940 5939 5939 5939 5938 5937 5937 5936 5935 5934 5934 5933 5932 5931 5931 5930 5930 5930 5929 5929 5929 5928 5928 5927 5926 5925 5925 5924 5923
5899 5900 5900 5901 5901 5903 5904 5906 5907 5909 5910 5912 5914 5915 5917 5918 5920 5921 5923 5924 5925 5927 5928 5929 5930 5932 5933 5934 5936 5937 5938 5938 5939 5940 5941 5941 5942 5943 5943 5943 5944 5944 5944 5944 5945 5945 5944 5944 5944 5943 5943 5942 5942 5942 5941 5941 5940 5939 5939 5939 5938 5937 5937 5937 5936 5935 5934 5933 5932 5932 5931 5930 5930 5929 5929 5929 5928 5928 5927 5927 5926 5925 5925 5924 5924
5898 5899 5900 5901 5901 5902 5904 5905 5907 5908 5910 5912 5913 5915 5916 5918 5919 5920 5921 5923 5924 5926 5927 5929 5930 5932 5933 5934 5935 5936 5937 5938 5939 5939 5940 5941 5942 5942 5943 5943 5943 5944 5944 5944 5944 5944 5944 5944 5944 5943 5943 5943 5942 5942 5941 5940 5940 5939 5939 5938 5938 5938 5937 5937 5936 5935 5934 5933 5933 5932 5931 5930 5930 5929 5929 5928 5928 5927 5927 5926 5926 5925 5925 5924 5924
5897 5899 5900 5901 5901 5902 5903 5904 5906 5907 5909 5911 5912 5914 5915 5917 5918 5919 5920 5922 5923 5925 5927 5928 5930 5931 5933 5934 5935 5936 5936 5937 5938 5938 5939 5940 5941 5942 5942 5943 5943 5943 5944 5944 5944 5944 5944 5944 5944 5943 5943 5942 5942 5941 5941 5940 5939 5939 5939 5938 5938 5938 5937 5937 5936 5935 5934 5934 5933 5932 5931 5930 5930 5929 5928 5928 5928 5927 5927 5926 5926 5925 5925 5924 5924
5897 5898 5899 5900 5901 5902 5903 5904 5905 5907 5909 5910 5912 5913 5914 5916 5917 5918 5919 5921 5922 5924 5926 5927 5929 5930 5932 5933 5933 5934 5935 5936 5937 5938 5939 5940 5941 5942 5942 5943 5943 5943 5944 5944 5944 5944 5944 5944 5943 5943 5943 5942 5942 5941 5940 5940 5939 5939 5939 5939 5939 5939 5938 5937 5936 5935 5934 5933 5933 5932 5931 5930 5930 5929 5928 5928 5927 5927 5926 5926 5926 5925 5925 5924 5924
5895 5897 5898 5899 5901 5902 5903 5904 5905 5906 5908 5909 5911 5912 5914 5915 5916 5917 5918 5920 5921 5923 5925 5926 5928 5929 5930 5931 5932 5933 5934 5935 5937 5938 5940 5941 5942 5942 5942 5943 5943 5943 5943 5943 5943 5943 5943 5943 5943 5943 5943 5942 5942 5941 5940 5940 5939 5939 5939 5939 5939 5939 5938 5937 5936 5935 5934 5933 5932 5932 5931 5930 5929 5929 5928 5928 5927 5927 5926 5926 5925 5925 5924 5924 5924
5894 5895 5897 5898 5900 5901 5902 5903 5904 5905 5907 5908 5910 5911 5913 5914 5915 5916 5917 5919 5920 5922 5924 5925 5927 5928 5929 5930 5932 5933 5934 5935 5937 5939 5940 5941 5941 5942 5942 5942 5943 5943 5943 5943 5943 5943 5943 5943 5943 5943 5943 5942 5942 5941 5940 5940 5940 5939 5939 5939 5939 5939 5938 5936 5935 5934 5933 5933 5932 5931 5931 5930 5929 5928 5928 5928 5927 5927 5926 5925 5925 5924 5924 5924 5923
5892 5893 5895 5897 5899 5900 5901 5902 5903 5905 5906 5907 5909 5910 5912 5914 5915 5916 5917 5918 5919 5921 5922 5924 5925 5927 5928 5930 5931 5932 5934 5935 5937 5938 5939 5940 5941 5941 5941 5942 5942 5942 5943 5943 5943 5943 5943 5943 5943 5942 5942 5942 5941 5941 5940 5940 5940 5939 5939 5939 5939 5938 5937 5936 5935 5934 5933 5932 5932 5931 5931 5930 5929 5929 5928 5927 5927 5926 5926 5925 5924 5924 5924 5923 5923
5892 5892 5893 5895 5897 5898 5900 5901 5903 5904 5906 5907 5908 5910 5912 5913 5914 5916 5917 5918 5919 5920 5921 5923 5924 5926 5927 5929 5930 5932 5933 5935 5936 5937 5938 5939 5940 5940 5941 5941 5941 5942 5942 5942 5942 5942 5942 5942 5942 5942 5942 5942 5941 5941 5940 5940 5940 5940 5939 5939 5939 5938 5937 5936 5935 5934 5933 5932 5932 5931 5931 5930 5929 5929 5928 5927 5926 5926 5925 5924 5924 5924 5923 5923 5922
5893 5892 5892 5893 5895 5897 5899 5901 5903 5904 5905 5907 5908 5909 5911 5912 5914 5915 5916 5917 5918 5919 5920 5922 5923 5925 5926 5928 5929 5931 5932 5934 5935 5936 5937 5938 5938 5939 5939 5940 5940 5941 5941 5942 5942 5942 5942 5941 5941 5941 5941 5941 5941 5940 5940 5940 5940 5940 5940 5939 5939 5938 5937 5936 5935 5934 5933 5932 5932 5931 5930 5930 5929 5929 5928 5927 5926 5925 5925 5924 5923 5923 5922 5922 5921
5892 5892 5892 5892 5894 5896 5898 5900 5902 5903 5905 5906 5908 5909 5910 5912 5913 5914 5916 5917 5918 5919 5920 5921 5922 5923 5925 5927 5928 5930 5931 5932 5933 5934 5935 5936 5937 5938 5938 5939 5939 5940 5940 5941 5941 5941 5941 5941 5941 5941 5941 5941 5941 5940 5940 5940 5940 5940 5940 5939 5939 5938 5937 5937 5935 5934 5933 5933 5932 5931 5931 5930 5929 5929 5928 5927 5926 5926 5925 5924 5923 5922 5921 5921 5920
5892 5892 5892 5893 5893 5895 5896 5898 5900 5902 5904 5905 5907 5908 5909 5911 5912 5913 5915 5916 5917 5918 5919 5920 5921 5922 5924 5925 5927 5928 5930 5931 5931 5932 5933 5935 5935 5936 5937 5938 5938 5939 5939 5940 5940 5941 5941 5940 5940 5940 5940 5940 5940 5940 5940 5940 5940 5940 5940 5939 5938 5938 5937 5937 5936 5934 5934 5933 5932 5932 5931 5930 5929 5929 5928 5927 5926 5925 5925 5924 5923 5922 5921 5920 5920
5890 5891 5891 5892 5893 5894 5895 5897 5899 5900 5902 5903 5905 5906 5908 5909 5910 5911 5913 5914 5915 5917 5918 5919 5920 5921 5922 5923 5925 5926 5928 5929 5930 5931 5932 5933 5934 5935 5936 5936 5937 5937 5938 5939 5939 5940 5940 5939 5939 5939 5939 5939 5939 5939 5939 5939 5940 5940 5939 5939 5938 5938 5937 5936 5936 5934 5934 5933 5932 5931 5931 5930 5929 5928 5927 5927 5926 5925 5924 5924 5923 5922 5921 5920 5920
5889 5890 5891 5892 5893 5893 5894 5895 5897 5899 5900 5902 5904 5905 5906 5907 5909 5910 5911 5913 5914 5915 5917 5918 5919 5920 5921 5922 5923 5925 5926 5927 5928 5929 5930 5931 5932 5933 5934 5934 5935 5936 5937 5938 5938 5938 5938 5938 5938 5938 5938 5938 5938 5938 5938 5938 5939 5939 5939 5939 5938 5937 5937 5936 5935 5935 5934 5933 5932 5931 5930 5930 5929 5928 5927 5926 5926 5925 5924 5923 5923 5922 5921 5920 5920
5887 5889 5890 5891 5892 5893 5893 5894 5896 5897 5899 5901 5902 5904 5905 5906 5907 5909 5910 5911 5912 5914 5915 5916 5917 5918 5919 5920 5922 5923 5924 5925 5926 5927 5928 5929 5930 5931 5932 5933 5933 5934 5935 5936 5937 5937 5937 5937 5937 5937 5937 5937 5937 5937 5937 5938 5938 5938 5938 5938 5938 5937 5936 5936 5935 5935 5934 5933 5932 5931 5930 5930 5929 5928 5927 5926 5926 5925 5924 5923 5923 5922 5921 5920 5920
5886 5888 5889 5890 5891 5892 5893 5894 5895 5896 5898 5899 5901 5902 5904 5905 5906 5907 5908 5910 5911 5912 5913 5914 5915 5917 5918 5919 5920 5921 5922 5923 5924 5925 5926 5927 5928 5929 5930 5931 5932 5933 5934 5935 5935 5936 5936 5936 5936 5936 5936 5936 5936 5936 5936 5937 5937 5937 5937 5937 5937 5936 5936 5935 5935 5934 5934 5933 5932 5931 5931 5930 5929 5928 5928 5927 5926 5925 5924 5923 5923 5922 5921 5920 5919
5885 5886 5887 5888 5890 5891 5892 5894 5895 5895 5896 5898 5899 5900 5902 5903 5905 5906 5907 5909 5910 5911 5912 5913 5914 5915 5916 5917 5919 5920 5921 5922 5922 5923 5924 5926 5927 5928 5929 5930 5930 5931 5932 5933 5934 5934 5935 5935 5935 5935 5935 5935 5935 5935 5935 5935 5936 5936 5936 5936 5936 5936 5935 5935 5934 5934 5933 5933 5932 5931 5930 5930 5929 5929 5928 5927 5926 5925 5924 5923 5923 5922 5921 5920 5919
5883 5884 5886 5887 5889 5890 5891 5893 5894 5895 5896 5896 5897 5898 5900 5901 5903 5904 5906 5907 5908 5909 5911 5912 5913 5914 5915 5916 5917 5918 5919 5920 5920 5921 5923 5924 5925 5926 5927 5928 5929 5929 5931 5932 5932 5933 5933 5934 5934 5934 5933 5933 5933 5933 5934 5934 5935 5935 5935 5935 5935 5935 5934 5934 5934 5933 5933 5932 5931 5931 5930 5929 5929 5928 5928 5927 5926 5925 5924 5923 5922 5921 5920 5919 5918
5881 5883 5884 5886 5887 5888 5889 5891 5892 5894 5895 5895 5896 5897 5898 5899 5901 5902 5904 5905 5907 5908 5910 5911 5912 5913 5914 5915 5916 5917 5917 5918 5919 5920 5921 5922 5923 5924 5925 5926 5927 5928 5929 5930 5931 5931 5931 5932 5932 5932 5932 5932 5932 5932 5932 5933 5933 5934 5934 5934 5934 5934 5933 5933 5933 5933 5932 5931 5931 5930 5930 5929 5928 5928 5927 5926 5925 5925 5924 5923 5922 5921 5920 5919 5918
5879 5881 5883 5884 5885 5885 5887 5888 5889 5890 5892 5893 5894 5895 5896 5897 5899 5900 5902 5903 5905 5907 5908 5909 5910 5911 5912 5913 5914 5915 5915 5916 5917 5918 5919 5920 5921 5922 5923 5923 5925 5926 5927 5928 5929 5929 5929 5930 5930 5930 5930 5930 5930 5930 5931 5931 5932 5932 5933 5933 5933 5933 5933 5932 5932 5931 5931 5931 5930 5930 5929 5928 5927 5926 5925 5925 5924 5923 5922 5921 5920 5920 5919 5918 5917
5877 5879 5881 5882 5882 5883 5884 5885 5885 5887 5888 5890 5892 5894 5895 5896 5897 5898 5899 5902 5903 5905 5906 5907 5908 5909 5910 5911 5912 5912 5913 5914 5915 5916 5917 5918 5919 5919 5920 5921 5922 5923 5924 5925 5926 5927 5927 5927 5928 5928 5928 5928 5928 5928 5929 5930 5930 5931 5931 5931 5931 5931 5931 5931 5931 5930 5930 5930 5929 5929 5928 5927 5926 5925 5924 5923 5922 5921 5920 5919 5919 5918 5917 5916 5916
5874 5876 5878 5879 5880 5881 5881 5881 5882 5883 5885 5887 5889 5891 5893 5895 5895 5896 5898 5900 5901 5903 5904 5905 5906 5907 5908 5908 5909 5910 5911 5912 5913 5914 5914 5915 5916 5917 5918 5919 5920 5920 5922 5923 5923 5924 5924 5925 5925 5926 5926 5926 5926 5926 5927 5928 5928 5928 5929 5929 5930 5930 5930 5930 5930 5929 5929 5929 5929 5928 5927 5926 5924 5923 5922 5921 5920 5919 5918 5917 5917 5916 5915 5914 5913
5872 5873 5875 5877 5877 5877 5878 5879 5880 5881 5883 5885 5887 5889 5891 5893 5894 5895 5897 5898 5899 5900 5901 5903 5904 5905 5905 5906 5907 5908 5909 5910 5911 5912 5912 5912 5913 5914 5915 5916 5917 5918 5919 5920 5920 5921 5921 5922 5923 5923 5923 5923 5923 5923 5924 5925 5926 5926 5927 5927 5928 5928 5928 5929 5929 5928 5928 5928 5928 5927 5926 5925 5923 5922 5921 5920 5919 5917 5916 5915 5914 5914 5913 5913 5912
5868 5870 5872 5873 5874 5875 5876 5878 5878 5879 5881 5883 5886 5887 5889 5890 5892 5893 5895 5896 5896 5897 5899 5900 5901 5902 5903 5904 5905 5906 5907 5908 5909 5909 5909 5910 5910 5911 5912 5913 5914 5915 5916 5917 5917 5918 5918 5919 5920 5920 5920 5920 5920 5921 5921 5923 5923 5924 5925 5925 5926 5926 5927 5927 5927 5927 5927 5926 5926 5926 5925 5923 5922 5921 5920 5918 5917 5915 5914 5913 5912 5911 5911 5911 5910
5865 5867 5869 5870 5872 5873 5875 5876 5877 5877 5879 5881 5883 5885 5887 5888 5890 5891 5892 5893 5894 5895 5896 5897 5898 5899 5900 5902 5903 5904 5905 5905 5906 5906 5907 5907 5907 5908 5909 5910 5910 5911 5912 5913 5914 5915 5916 5916 5916 5916 5917 5917 5918 5918 5919 5920 5921 5922 5922 5923 5924 5924 5925 5925 5926 5925 5925 5924 5924 5924 5923 5922 5920 5919 5918 5917 5916 5914 5913 5911 5910 5909 5909 5909 5908
5862 5864 5866 5868 5869 5871 5873 5874 5875 5876 5877 5879 5881 5882 5884 5886 5887 5889 5889 5890 5891 5893 5894 5895 5895 5896 5898 5899 5900 5901 5902 5902 5903 5904 5904 5904 5905 5905 5906 5907 5907 5908 5909 5910 5911 5912 5912 5913 5913 5913 5914 5914 5915 5916 5917 5918 5919 5920 5920 5921 5921 5922 5922 5923 5923 5923 5923 5923 5922 5922 5921 5920 5919 5918 5917 5916 5914 5913 5912 5910 5909 5908 5907 5907 5906
5859 5861 5862 5864 5866 5868 5870 5871 5872 5874 5875 5876 5878 5880 5881 5883 5884 5885 5886 5888 5889 5890 5892 5893 5893 5894 5896 5897 5898 5898 5899 5900 5900 5901 5901 5902 5902 5903 5903 5904 5904 5905 5906 5907 5908 5908 5909 5910 5910 5910 5911 5911 5912 5913 5914 5915 5916 5918 5918 5918 5919 5919 5920 5920 5921 5921 5921 5921 5920 5919 5919 5918 5917 5916 5915 5914 5913 5911 5910 5909 5908 5907 5906 5905 5904
5854 5856 5858 5860 5862 5864 5866 5868 5870 5871 5872 5874 5876 5878 5879 5880 5881 5882 5884 5885 5886 5888 5889 5890 5891 5893 5894 5895 5895 5896 5897 5897 5898 5899 5899 5900 5900 5901 5901 5901 5902 5903 5903 5904 5905 5906 5906 5907 5908 5908 5908 5909 5910 5911 5913 5913 5914 5915 5916 5916 5916 5916 5917 5918 5918 5919 5919 5919 5918 5917 5917 5916 5915 5914 5913 5912 5911 5910 5908 5907 5906 5905 5904 5903 5902
5849 5851 5853 5856 5859 5861 5863 5865 5867 5869 5870 5872 5874 5876 5877 5878 5879 5879 5881 5882 5884 5886 5887 5888 5889 5891 5892 5892 5892 5894 5894 5895 5896 5897 5897 5898 5898 5898 5899 5900 5900 5901 5901 5902 5903 5903 5904 5905 5906 5906 5906 5907 5908 5909 5911 5911 5912 5912 5913 5913 5913 5913 5914 5915 5915 5916 5916 5916 5916 5915 5914 5914 5913 5912 5911 5910 5909 5908 5907 5905 5904 5903 5901 5900 5899
5846 5848 5850 5853 5855 5858 5860 5862 5864 5866 5867 5869 5871 5873 5874 5875 5876 5877 5878 5879 5881 5883 5884 5885 5887 5888 5889 5889 5890 5891 5892 5894 5894 5895 5896 5896 5896 5897 5898 5898 5899 5899 5900 5901 5901 5902 5903 5903 5904 5904 5905 5905 5907 5907 5908 5909 5909 5909 5910 5910 5910 5910 5911 5911 5912 5913 5913 5913 5913 5912 5912 5911 5910 5910 5909 5907 5906 5906 5904 5903 5902 5901 5899 5898 5897
5843 5845 5848 5850 5853 5855 5857 5859 5860 5862 5864 5865 5867 5869 5871 5872 5874 5875 5875 5876 5877 5880 5881 5883 5884 5885 5886 5887 5888 5889 5890 5892 5892 5893 5894 5895 5895 5896 5897 5897 5898 5898 5898 5899 5900 5901 5901 5902 5902 5903 5903 5904 5904 5905 5906 5906 5906 5906 5907 5907 5907 5907 5907 5908 5909 5910 5910 5910 5910 5910 5909 5908 5908 5907 5906 5905 5904 5903 5902 5901 5900 5899 5897 5896 5894
5842 5843 5846 5848 5850 5852 5854 5856 5858 5859 5860 5862 5863 5866 5868 5869 5870 5871 5871 5872 5874 5877 5878 5880 5881 5882 5883 5885 5886 5887 5888 5890 5890 5891 5892 5892 5893 5894 5895 5895 5896 5896 5897 5898 5899 5899 5900 5900 5901 5901 5901 5902 5902 5903 5903 5903 5903 5903 5903 5903 5903 5903 5904 5905 5906 5907 5907 5907 5907 5907 5906 5906 5905 5904 5903 5902 5902 5901 5900 5899 5897 5896 5895 5893 5892
5839 5841 5843 5845 5847 5849 5851 5853 5855 5856 5858 5858 5860 5863 5865 5866 5866 5867 5868 5870 5872 5873 5875 5877 5878 5879 5881 5882 5883 5885 5886 5887 5888 5888 5889 5890 5891 5892 5892 5893 5893 5894 5895 5896 5897 5897 5898 5898 5899 5899 5899 5900 5900 5901 5901 5901 5901 5901 5900 5900 5900 5900 5900 5901 5902 5903 5903 5903 5903 5903 5903 5902 5902 5901 5900 5899 5899 5898 5897 5896 5895 5893 5892 5891 5889
5836 5838 5840 5842 5844 5846 5848 5850 5852 5853 5855 5856 5858 5861 5862 5863 5864 5865 5866 5868 5869 5870 5872 5874 5875 5877 5878 5879 5881 5882 5883 5884 5885 5885 5886 5887 5888 5889 5890 5890 5891 5892 5893 5893 5894 5895 5895 5896 5896 5897 5897 5897 5898 5898 5898 5898 5898 5897 5897 5896 5896 5896 5897 5898 5898 5899 5899 5899 5899 5899 5899 5899 5899 5898 5897 5896 5895 5894 5894 5893 5892 5890 5889 5888 5887
5833 5835 5837 5839 5841 5843 5845 5847 5848 5850 5852 5854 5855 5857 5859 5860 5862 5863 5864 5865 5867 5868 5870 5872 5873 5874 5876 5877 5878 5880 5880 5881 5882 5883 5884 5885 5885 5886 5887 5888 5888 5889 5890 5890 5891 5892 5892 5893 5893 5893 5894 5894 5895 5895 5895 5895 5894 5894 5893 5893 5893 5893 5893 5894 5894 5895 5895 5895 5894 5894 5895 5895 5895 5894 5894 5892 5890 5890 5890 5889 5888 5887 5885 5884 5883
5830 5832 5834 5836 5837 5839 5842 5843 5845 5847 5849 5851 5853 5854 5856 5858 5859 5860 5862 5863 5865 5867 5869 5870 5872 5873 5874 5875 5876 5876 5877 5878 5879 5880 5881 5882 5883 5883 5884 5884 5885 5886 5886 5887 5888 5888 5889 5889 5889 5889 5890 5890 5890 5890 5891 5891 5891 5890 5889 5889 5889 5889 5889 5890 5890 5890 5890 5890 5890 5890 5890 5890 5890 5890 5890 5888 5886 5885 5886 5885 5884 5883 5882 5881 5879
5827 5829 5831 5833 5834 5836 5838 5840 5842 5844 5846 5848 5849 5851 5853 5856 5857 5858 5859 5861 5863 5865 5867 5869 5870 5871 5872 5872 5873 5873 5874 5875 5876 5877 5878 5879 5879 5880 5880 5881 5881 5882 5883 5883 5884 5884 5884 5884 5885 5885 5885 5885 5885 5885 5886 5886 5886 5886 5884 5884 5884 5884 5884 5885 5885 5885 5886 5886 5885 5885 5885 5885 5885 5885 5885 5883 5881 5880 5881 5880 5879 5879 5877 5877 5875
5824 5826 5828 5830 5831 5833 5835 5837 5839 5841 5843 5845 5846 5848 5850 5853 5854 5855 5856 5858 5861 5863 5865 5866 5867 5868 5868 5869 5869 5870 5871 5872 5873 5874 5874 5875 5876 5876 5876 5877 5877 5877 5878 5878 5878 5879 5880 5880 5880 5880 5880 5880 5880 5880 5881 5882 5882 5881 5880 5879 5878 5878 5879 5879 5879 5879 5880 5880 5879 5878 5878 5878 5878 5878 5879 5878 5875 5875 5876 5875 5874 5873 5873 5872 5870
5821 5823 5825 5826 5828 5830 5831 5833 5835 5837 5840 5842 5844 5845 5847 5849 5851 5852 5854 5856 5858 5860 5861 5863 5864 5865 5865 5866 5866 5867 5868 5869 5870 5870 5870 5871 5872 5872 5872 5872 5873 5873 5873 5873 5873 5874 5875 5875 5875 5875 5875 5875 5875 5875 5876 5877 5877 5877 5876 5874 5872 5872 5873 5873 5873 5874 5873 5872 5871 5871 5871 5872 5872 5872 5873 5872 5870 5870 5870 5869 5868 5868 5867 5867 5864
5817 5819 5821 5822 5824 5826 5828 5830 5832 5834 5836 5838 5841 5842 5844 5846 5848 5849 5851 5853 5854 5856 5857 5858 5860 5861 5862 5863 5864 5864 5865 5866 5866 5866 5867 5867 5868 5868 5868 5868 5869 5869 5869 5869 5869 5870 5870 5870 5871 5870 5870 5871 5871 5871 5871 5872 5872 5871 5870 5869 5867 5866 5867 5867 5867 5867 5866 5865 5865 5865 5866 5867 5866 5866 5867 5866 5864 5864 5864 5863 5862 5862 5861 5860 5859
5813 5815 5817 5819 5820 5823 5824 5826 5828 5830 5832 5835 5837 5839 5841 5843 5844 5846 5848 5849 5851 5852 5853 5854 5856 5857 5858 5859 5860 5861 5862 5862 5862 5863 5864 5864 5865 5865 5864 5865 5865 5865 5865 5865 5865 5865 5865 5865 5866 5865 5866 5866 5866 5866 5865 5866 5866 5866 5865 5863 5862 5861 5860 5859 5859 5859 5860 5860 5861 5861 5861 5861 5860 5859 5860 5859 5857 5857 5858 5857 5857 5856 5855 5854 5853
5809 5811 5813 5815 5817 5819 5821 5823 5824 5826 5829 5831 5833 5836 5838 5840 5841 5843 5845 5847 5848 5849 5850 5851 5852 5853 5853 5855 5856 5856 5857 5858 5858 5859 5860 5860 5861 5861 5860 5861 5861 5861 5860 5860 5860 5860 5860 5860 5860 5860 5860 5861 5860 5860 5859 5859 5860 5860 5858 5858 5857 5855 5853 5851 5851 5852 5854 5855 5855 5854 5854 5855 5854 5852 5852 5851 5850 5851 5851 5851 5850 5850 5849 5848 5846
5805 5807 5809 5811 5813 5815 5817 5819 5821 5823 5825 5827 5830 5832 5834 5836 5838 5840 5842 5843 5845 5846 5847 5848 5848 5849 5850 5851 5851 5852 5853 5854 5854 5855 5855 5856 5857 5856 5856 5856 5856 5856 5855 5855 5855 5855 5854 5854 5854 5854 5854 5854 5854 5853 5853 5853 5854 5854 5853 5852 5851 5849 5846 5845 5844 5845 5846 5846 5847 5848 5848 5848 5847 5845 5844 5843 5843 5844 5845 5844 5844 5844 5843 5841 5839
5800 5803 5805 5807 5809 5812 5814 5816 5818 5820 5822 5824 5826 5828 5830 5832 5834 5836 5838 5839 5840 5841 5843 5844 5845 5845 5846 5847 5847 5848 5849 5850 5850 5851 5851 5851 5852 5851 5851 5851 5850 5850 5850 5850 5850 5849 5848 5848 5848 5847 5848 5848 5847 5846 5846 5846 5847 5847 5846 5845 5844 5842 5841 5839 5837 5836 5837 5838 5839 5840 5841 5841 5840 5837 5835 5835 5836 5838 5838 5837 5837 5837 5835 5834 5833
5796 5798 5801 5803 5805 5808 5810 5812 5814 5816 5818 5820 5822 5823 5825 5827 5829 5831 5833 5835 5836 5837 5838 5839 5840 5841 5842 5843 5843 5844 5845 5845 5845 5846 5846 5846 5846 5846 5845 5845 5844 5845 5845 5845 5845 5844 5842 5841 5841 5841 5840 5840 5839 5838 5838 5839 5839 5839 5837 5837 5836 5835 5835 5833 5830 5829 5827 5828 5830 5832 5833 5834 5832 5828 5826 5828 5829 5830 5830 5830 5831 5830 5828 5827 5826
5791 5794 5796 5799 5801 5803 5806 5808 5810 5812 5814 5816 5818 5819 5821 5823 5825 5827 5828 5829 5831 5832 5833 5834 5836 5837 5837 5838 5839 5839 5840 5840 5840 5840 5840 5840 5840 5840 5839 5839 5839 5839 5839 5838 5838 5837 5836 5835 5835 5834 5833 5831 5831 5830 5829 5829 5830 5829 5829 5829 5827 5826 5826 5824 5822 5820 5819 5818 5821 5824 5825 5825 5822 5818 5818 5820 5822 5822 5823 5823 5824 5823 5822 5820 5819
5787 5789 5792 5794 5797 5799 5801 5803 5805 5807 5809 5811 5813 5815 5817 5818 5820 5821 5823 5824 5826 5827 5828 5829 5831 5832 5833 5833 5834 5834 5835 5835 5835 5835 5834 5834 5834 5833 5833 5833 5833 5832 5832 5831 5831 5830 5830 5829 5827 5826 5825 5823 5823 5823 5822 5821 5821 5821 5820 5819 5817 5816 5815 5813 5811 5811 5810 5808 5809 5812 5814 5814 5811 5809 5810 5812 5814 5816 5816 5816 5817 5816 5815 5814 5813
5782 5785 5788 5790 5792 5794 5796 5798 5801 5803 5805 5807 5808 5810 5812 5813 5815 5816 5818 5819 5820 5822 5823 5824 5825 5826 5827 5828 5828 5829 5829 5829 5829 5829 5828 5828 5827 5826 5826 5826 5826 5826 5825 5824 5823 5823 5823 5821 5819 5817 5816 5814 5814 5815 5815 5813 5812 5812 5810 5808 5806 5805 5803 5802 5802 5800 5796 5792 5794 5798 5801 5802 5801 5799 5800 5804 5808 5810 5809 5808 5808 5809 5808 5807 5807
5777 5780 5783 5785 5788 5790 5792 5794 5796 5798 5800 5802 5804 5805 5807 5808 5810 5812 5813 5814 5816 5817 5818 5819 5820 5821 5821 5822 5822 5822 5822 5822 5822 5822 5822 5821 5821 5820 5820 5820 5820 5819 5818 5816 5816 5815 5814 5813 5810 5808 5807 5805 5803 5805 5806 5803 5800 5801 5801 5799 5797 5796 5795 5793 5791 5786 5781 5780 5784 5788 5789 5791 5790 5788 5790 5796 5800 5801 5800 5800 5800 5800 5800 5800 5800
5773 5775 5778 5780 5783 5785 5787 5789 5791 5793 5795 5797 5799 5800 5802 5804 5805 5807 5808 5809 5810 5811 5812 5813 5814 5814 5815 5815 5815 5815 5815 5815 5815 5815 5815 5815 5814 5814 5814 5813 5812 5812 5811 5809 5808 5807 5806 5804 5801 5799 5799 5797 5795 5794 5795 5793 5790 5789 5789 5789 5788 5788 5786 5782 5780 5777 5773 5772 5775 5779 5780 5779 5777 5775 5779 5787 5791 5791 5789 5789 5791 5793 5793 5793 5792